Location: Garbet
(42.8837°N, 1.2115°E)
Time: 00:44:43
(UTC+00:00)

SPOT 1/Viking Rocket - Pass Details

Date: 13 December 2025
Orbit: 772 x 790 km, 98.2° (Epoch: 19 January)

Event Time Altitude Azimuth Distance (km) Brightness Sun altitude
Rises 18:07:34 0° 166° (SSE) 3,271 6.8 -18.7°
Reaches altitude 10° 18:09:52 10° 167° (SSE) 2,346 6.0 -19.1°
Maximum altitude 18:15:04 86° 256° (WSW) 798 3.5 -20.0°
Drops below altitude 10° 18:20:18 10° 346° (NNW) 2,361 6.0 -21.0°
Sets 18:22:38 0° 347° (NNW) 3,293 6.8 -21.4°
